Location: *
(46.1200°N, 11.2700°E)
Time: 02:00:16
(UTC+00:00)

Cosmos 2219 Rocket - Pass Details

Date: 02 March 2021
Orbit: 826 x 848 km, 71.0° (Epoch: 20 April)

Event Time Altitude Azimuth Distance (km) Brightness Sun altitude
Rises 17:57:52 0° 151° (SSE) 3,353 5.0 -10.3°
Reaches altitude 10° 18:01:26 10° 128° (SE) 2,428 4.1 -10.9°
Enters shadow 18:03:31 14° 106° (ESE) 2,164 3.7 -11.3°
